KLM87P EHAM-LEBL

Flight info

Callsign KLM87P
Flight time 1h 55m
Altitude 34000
Route WOODY N872 MEDIL DCT KOVIN DCT DUCRA UM728 RESMI UN857 DISAK DCT DIRMO DCT VALKU DCT ATSUP DCT MINSO DCT DEGOL DCT PPG DCT ALBER
Aircraft B738/M-SDE2E3FGHIRWXY/LB1

Departure

Time 2026-05-07 12:45
Airport Amsterdam Airport Schiphol (EHAM)

Arrival

Time 2026-05-07 14:40
Airport Josep Tarradellas Barcelona-El Prat Airport (LEBL)
Time Latitude Longitude Altitude Speed Heading
2026-05-07 12:03 52.30627 4.76638 -2 ft 0 kts 236°
2026-05-07 12:31 52.30635 4.76657 -2 ft 4 kts 240°
2026-05-07 12:31 52.30645 4.76697 -2 ft 4 kts 257°
2026-05-07 12:31 52.30647 4.76739 -2 ft 4 kts 285°
2026-05-07 12:32 52.30636 4.76771 -2 ft 2 kts 327°
2026-05-07 12:32 52.30635 4.76772 -2 ft 0 kts 328°
2026-05-07 12:34 52.30637 4.76770 -2 ft 2 kts 328°
2026-05-07 12:35 52.30677 4.76735 -2 ft 9 kts 347°
2026-05-07 12:35 52.30709 4.76803 -2 ft 10 kts 113°
2026-05-07 12:35 52.30664 4.76880 -2 ft 9 kts 116°
2026-05-07 12:35 52.30646 4.76983 -2 ft 10 kts 126°
2026-05-07 12:36 52.30582 4.77055 -2 ft 13 kts 147°
2026-05-07 12:36 52.30501 4.77059 -2 ft 13 kts 230°
2026-05-07 12:36 52.30445 4.76913 -2 ft 19 kts 238°
2026-05-07 12:36 52.30364 4.76704 -2 ft 23 kts 238°
2026-05-07 12:37 52.30280 4.76486 -2 ft 22 kts 238°
2026-05-07 12:37 52.30199 4.76275 -2 ft 22 kts 238°
2026-05-07 12:37 52.30121 4.76071 -2 ft 21 kts 238°
2026-05-07 12:37 52.30044 4.75868 -2 ft 20 kts 238°
2026-05-07 12:38 52.29970 4.75675 -2 ft 20 kts 238°
2026-05-07 12:38 52.29898 4.75490 -2 ft 19 kts 238°
2026-05-07 12:38 52.29834 4.75305 -2 ft 18 kts 255°
2026-05-07 12:38 52.29879 4.75126 -2 ft 18 kts 311°
2026-05-07 12:39 52.29959 4.74977 -2 ft 17 kts 311°
2026-05-07 12:39 52.30036 4.74834 -2 ft 17 kts 311°
2026-05-07 12:39 52.30112 4.74695 5 ft 16 kts 311°
2026-05-07 12:39 52.30190 4.74549 9 ft 19 kts 311°
2026-05-07 12:40 52.30279 4.74385 10 ft 19 kts 310°
2026-05-07 12:40 52.30360 4.74228 -2 ft 14 kts 304°
2026-05-07 12:40 52.30354 4.74089 -2 ft 13 kts 235°
2026-05-07 12:40 52.30287 4.73995 -2 ft 13 kts 216°
2026-05-07 12:41 52.30218 4.73912 -2 ft 12 kts 217°
2026-05-07 12:41 52.30191 4.73791 -3 ft 12 kts 286°
2026-05-07 12:41 52.30255 4.73742 -5 ft 8 kts
2026-05-07 12:41 52.30267 4.73743 -5 ft 0 kts
2026-05-07 12:44 52.30281 4.73745 -5 ft 9 kts
2026-05-07 12:44 52.30585 4.73772 -4 ft 79 kts
2026-05-07 12:45 52.31350 4.73842 -3 ft 140 kts
2026-05-07 12:45 52.32466 4.73952 237 ft 169 kts
2026-05-07 12:45 52.33648 4.74081 1019 ft 169 kts 11°
2026-05-07 12:45 52.34744 4.74664 1880 ft 168 kts 23°
2026-05-07 12:46 52.35887 4.75475 2283 ft 196 kts 25°
2026-05-07 12:46 52.37071 4.76837 2587 ft 215 kts 54°
2026-05-07 12:46 52.37518 4.79139 3121 ft 224 kts 94°
2026-05-07 12:46 52.37196 4.81639 3865 ft 228 kts 106°
2026-05-07 12:47 52.36380 4.83868 4610 ft 233 kts 139°
2026-05-07 12:47 52.34918 4.84957 5390 ft 234 kts 173°
2026-05-07 12:47 52.33287 4.85061 6211 ft 235 kts 181°
2026-05-07 12:47 52.31655 4.84991 7027 ft 235 kts 181°
2026-05-07 12:48 52.30023 4.84922 7775 ft 237 kts 181°
2026-05-07 12:48 52.28353 4.84867 8454 ft 242 kts 181°
2026-05-07 12:48 52.26662 4.84823 9225 ft 243 kts 181°
2026-05-07 12:48 52.24963 4.84782 9942 ft 248 kts 181°
2026-05-07 12:49 52.23175 4.84740 10262 ft 268 kts 182°
2026-05-07 12:49 52.21228 4.84696 10450 ft 292 kts 181°
2026-05-07 12:49 52.19117 4.84650 10634 ft 315 kts 181°
2026-05-07 12:49 52.16842 4.84602 10805 ft 338 kts 181°
2026-05-07 12:50 52.14439 4.84554 11161 ft 352 kts 181°
2026-05-07 12:50 52.11965 4.84503 11771 ft 358 kts 181°
2026-05-07 12:50 52.09466 4.84452 12495 ft 361 kts 181°
2026-05-07 12:50 52.06937 4.84400 13109 ft 367 kts 181°
2026-05-07 12:51 52.04368 4.84347 13767 ft 371 kts 181°
2026-05-07 12:51 52.01786 4.84011 14346 ft 375 kts 195°
2026-05-07 12:51 51.99391 4.82344 15022 ft 374 kts 208°
2026-05-07 12:51 51.97076 4.80416 15676 ft 376 kts 207°
2026-05-07 12:52 51.94707 4.78521 16198 ft 382 kts 207°
2026-05-07 12:52 51.92303 4.76635 16761 ft 387 kts 206°
2026-05-07 12:52 51.89866 4.74732 17364 ft 389 kts 206°
2026-05-07 12:52 51.87424 4.72825 17990 ft 392 kts 206°
2026-05-07 12:53 51.84953 4.70895 18546 ft 395 kts 206°
2026-05-07 12:53 51.82475 4.68961 19057 ft 398 kts 206°
2026-05-07 12:53 51.79979 4.67014 19587 ft 400 kts 206°
2026-05-07 12:53 51.77460 4.65051 20103 ft 402 kts 206°
2026-05-07 12:54 51.75792 4.63753 20434 ft 404 kts 206°
2026-05-07 12:54 51.73247 4.61774 20935 ft 407 kts 206°
2026-05-07 12:54 51.70689 4.59788 21426 ft 409 kts 206°
2026-05-07 12:54 51.68122 4.57796 21918 ft 411 kts 206°
2026-05-07 12:55 51.65532 4.55790 22385 ft 414 kts 206°
2026-05-07 12:55 51.62928 4.53775 22845 ft 417 kts 206°
2026-05-07 12:55 51.60305 4.51748 23304 ft 419 kts 206°
2026-05-07 12:55 51.57665 4.49711 23730 ft 422 kts 206°
2026-05-07 12:56 51.55010 4.47664 24104 ft 424 kts 206°
2026-05-07 12:56 51.52346 4.45613 24489 ft 425 kts 206°
2026-05-07 12:56 51.49670 4.43556 24858 ft 427 kts 206°
2026-05-07 12:56 51.46982 4.41491 25211 ft 429 kts 206°
2026-05-07 12:57 51.44281 4.39420 25586 ft 431 kts 206°
2026-05-07 12:57 51.41572 4.37345 25923 ft 433 kts 206°
2026-05-07 12:57 51.38885 4.35303 26252 ft 435 kts 206°
2026-05-07 12:57 51.36139 4.33251 26586 ft 437 kts 206°
2026-05-07 12:58 51.33374 4.31195 26909 ft 439 kts 206°
2026-05-07 12:58 51.30603 4.29130 27229 ft 441 kts 206°
2026-05-07 12:58 51.27823 4.27024 27544 ft 442 kts 206°
2026-05-07 12:58 51.25041 4.24898 27837 ft 444 kts 206°
2026-05-07 12:59 51.22244 4.22761 28138 ft 446 kts 206°
2026-05-07 12:59 51.19439 4.20628 28428 ft 448 kts 206°
2026-05-07 12:59 51.16614 4.18497 28745 ft 450 kts 205°
2026-05-07 12:59 51.13699 4.16656 29150 ft 449 kts 200°
2026-05-07 13:00 51.10751 4.15060 29608 ft 447 kts 199°
2026-05-07 13:00 51.07802 4.13523 30066 ft 445 kts 199°
2026-05-07 13:00 51.04868 4.11988 30388 ft 444 kts 200°
2026-05-07 13:00 51.01935 4.10426 30665 ft 444 kts 200°
2026-05-07 13:01 50.99009 4.08845 30973 ft 444 kts 200°
2026-05-07 13:01 50.96090 4.07256 31297 ft 443 kts 200°
2026-05-07 13:01 50.93176 4.05667 31601 ft 442 kts 200°
2026-05-07 13:01 50.90265 4.04084 31891 ft 442 kts 200°
2026-05-07 13:02 50.87366 4.02493 32187 ft 441 kts 201°
2026-05-07 13:02 50.84503 4.00751 32486 ft 440 kts 203°
2026-05-07 13:02 50.81710 3.98944 32778 ft 439 kts 204°
2026-05-07 13:02 50.78893 3.97092 33058 ft 439 kts 204°
2026-05-07 13:03 50.76077 3.95247 33373 ft 437 kts 204°
2026-05-07 13:03 50.73262 3.93421 33667 ft 437 kts 204°
2026-05-07 13:03 50.70445 3.91610 33938 ft 437 kts 204°
2026-05-07 13:03 50.67632 3.89812 34193 ft 436 kts 204°
2026-05-07 13:04 50.64822 3.88022 34395 ft 436 kts 204°
2026-05-07 13:04 50.62008 3.86230 34576 ft 437 kts 204°
2026-05-07 13:04 50.59189 3.84438 34763 ft 437 kts 203°
2026-05-07 13:04 50.56376 3.82640 34981 ft 436 kts 204°
2026-05-07 13:05 50.50783 3.78836 35070 ft 440 kts 205°
2026-05-07 13:05 50.45199 3.74983 35049 ft 436 kts 205°
2026-05-07 13:06 50.39650 3.71198 35064 ft 433 kts 205°
2026-05-07 13:06 50.34142 3.67463 35064 ft 430 kts 205°
2026-05-07 13:07 50.28656 3.63754 35071 ft 429 kts 205°
2026-05-07 13:07 50.23166 3.60049 35064 ft 430 kts 205°
2026-05-07 13:08 50.17666 3.56345 35070 ft 431 kts 205°
2026-05-07 13:08 50.12153 3.52641 35057 ft 433 kts 205°
2026-05-07 13:09 50.06614 3.48929 35069 ft 434 kts 205°
2026-05-07 13:09 50.01045 3.45207 35068 ft 436 kts 205°
2026-05-07 13:10 49.95453 3.41478 35065 ft 438 kts 205°
2026-05-07 13:10 49.89842 3.37746 35057 ft 439 kts 205°
2026-05-07 13:11 49.84262 3.34045 35065 ft 439 kts 205°
2026-05-07 13:11 49.78637 3.30323 35064 ft 439 kts 205°
2026-05-07 13:12 49.73018 3.26614 35065 ft 439 kts 205°
2026-05-07 13:12 49.67371 3.22897 35053 ft 438 kts 205°
2026-05-07 13:13 49.61773 3.19219 35062 ft 437 kts 205°
2026-05-07 13:13 49.56222 3.15581 35064 ft 436 kts 205°
2026-05-07 13:14 49.50646 3.11937 35070 ft 435 kts 205°
2026-05-07 13:14 49.45350 3.07529 35081 ft 432 kts 215°
2026-05-07 13:15 49.40375 3.02365 35076 ft 432 kts 216°
2026-05-07 13:15 49.35387 2.97218 35059 ft 432 kts 215°
2026-05-07 13:16 49.30380 2.92129 35060 ft 432 kts 215°
2026-05-07 13:16 49.25350 2.87057 35055 ft 433 kts 215°
2026-05-07 13:17 49.20307 2.81986 35052 ft 434 kts 215°
2026-05-07 13:17 49.15260 2.76922 35055 ft 434 kts 215°
2026-05-07 13:18 49.10209 2.71867 35052 ft 434 kts 215°
2026-05-07 13:18 49.05151 2.66815 35047 ft 434 kts 215°
2026-05-07 13:19 49.00092 2.61773 35049 ft 434 kts 214°
2026-05-07 13:19 48.95028 2.56741 35049 ft 434 kts 214°
2026-05-07 13:20 48.89962 2.51718 35050 ft 434 kts 214°
2026-05-07 13:20 48.84898 2.46706 35048 ft 434 kts 214°
2026-05-07 13:21 48.79841 2.41711 35061 ft 434 kts 214°
2026-05-07 13:21 48.74758 2.36703 35049 ft 435 kts 214°
2026-05-07 13:22 48.69686 2.31718 35044 ft 434 kts 214°
2026-05-07 13:22 48.64619 2.26748 35055 ft 434 kts 214°
2026-05-07 13:23 48.59586 2.21827 35041 ft 433 kts 213°
2026-05-07 13:23 48.54133 2.18182 35043 ft 436 kts 196°
2026-05-07 13:24 48.48180 2.16303 35034 ft 437 kts 193°
2026-05-07 13:24 48.42244 2.14471 35041 ft 436 kts 194°
2026-05-07 13:25 48.36300 2.12569 35035 ft 436 kts 194°
2026-05-07 13:25 48.30365 2.10701 35032 ft 436 kts 191°
2026-05-07 13:26 48.24276 2.10696 35034 ft 442 kts 174°
2026-05-07 13:26 48.18204 2.12142 35029 ft 442 kts 174°
2026-05-07 13:27 48.12114 2.13386 35036 ft 441 kts 179°
2026-05-07 13:27 48.06000 2.13800 35045 ft 440 kts 181°
2026-05-07 13:28 47.99872 2.14050 35049 ft 441 kts 181°
2026-05-07 13:28 47.93745 2.14350 35047 ft 441 kts 181°
2026-05-07 13:29 47.87600 2.14694 35051 ft 442 kts 180°
2026-05-07 13:29 47.81446 2.15052 35052 ft 443 kts 180°
2026-05-07 13:30 47.75291 2.15411 35023 ft 443 kts 180°
2026-05-07 13:30 47.69132 2.15767 35031 ft 443 kts 180°
2026-05-07 13:31 47.62966 2.16122 35027 ft 443 kts 180°
2026-05-07 13:31 47.56847 2.16474 35016 ft 443 kts 181°
2026-05-07 13:32 47.50694 2.16826 35026 ft 442 kts 181°
2026-05-07 13:32 47.44548 2.17178 35026 ft 442 kts 181°
2026-05-07 13:33 47.38406 2.17528 35027 ft 441 kts 181°
2026-05-07 13:33 47.32271 2.17877 35021 ft 441 kts 181°
2026-05-07 13:34 47.23080 2.18399 35027 ft 440 kts 181°
2026-05-07 13:35 47.16956 2.18745 35025 ft 440 kts 181°
2026-05-07 13:35 47.10837 2.19135 35022 ft 441 kts 177°
2026-05-07 13:36 47.04849 2.21373 35033 ft 448 kts 162°
2026-05-07 13:36 46.99067 2.24829 35023 ft 449 kts 161°
2026-05-07 13:37 46.93280 2.28293 35018 ft 449 kts 161°
2026-05-07 13:37 46.87483 2.31699 35027 ft 449 kts 162°
2026-05-07 13:38 46.81676 2.35074 35025 ft 449 kts 162°
2026-05-07 13:38 46.75905 2.38416 35019 ft 449 kts 162°
2026-05-07 13:39 46.70099 2.41769 35020 ft 449 kts 162°
2026-05-07 13:39 46.64290 2.45119 35015 ft 449 kts 162°
2026-05-07 13:40 46.58476 2.48463 35028 ft 449 kts 162°
2026-05-07 13:40 46.53602 2.51262 35007 ft 450 kts 162°
2026-05-07 13:41 46.47780 2.54597 35019 ft 450 kts 162°
2026-05-07 13:41 46.41945 2.57932 35020 ft 451 kts 162°
2026-05-07 13:42 46.36146 2.61239 35014 ft 451 kts 162°
2026-05-07 13:42 46.30293 2.64570 35020 ft 452 kts 163°
2026-05-07 13:43 46.24440 2.67892 35009 ft 452 kts 163°
2026-05-07 13:43 46.18579 2.71212 35016 ft 452 kts 163°
2026-05-07 13:44 46.12720 2.74523 35004 ft 452 kts 163°
2026-05-07 13:44 46.06872 2.77821 35001 ft 451 kts 163°
2026-05-07 13:45 46.01027 2.81109 35012 ft 451 kts 163°
2026-05-07 13:45 45.95172 2.84303 35016 ft 449 kts 164°
2026-05-07 13:46 45.89295 2.87387 35016 ft 449 kts 164°
2026-05-07 13:46 45.83426 2.90480 35015 ft 449 kts 164°
2026-05-07 13:47 45.77597 2.93560 35021 ft 449 kts 165°
2026-05-07 13:47 45.71573 2.95345 35008 ft 438 kts 183°
2026-05-07 13:48 45.65512 2.95174 34998 ft 435 kts 186°
2026-05-07 13:48 45.59471 2.94931 34997 ft 434 kts 185°
2026-05-07 13:49 45.53427 2.94734 34982 ft 434 kts 185°
2026-05-07 13:49 45.47406 2.94567 34999 ft 433 kts 185°
2026-05-07 13:50 45.41425 2.94408 34996 ft 432 kts 185°
2026-05-07 13:50 45.35421 2.94248 34998 ft 431 kts 185°
2026-05-07 13:51 45.29425 2.94087 35000 ft 430 kts 185°
2026-05-07 13:51 45.23437 2.93927 34993 ft 430 kts 185°
2026-05-07 13:52 45.17446 2.93767 34982 ft 431 kts 185°
2026-05-07 13:52 45.11456 2.93607 34990 ft 430 kts 185°
2026-05-07 13:53 45.05474 2.93448 34985 ft 430 kts 185°
2026-05-07 13:53 44.99499 2.93289 34984 ft 429 kts 185°
2026-05-07 13:54 44.93524 2.93131 34977 ft 429 kts 184°
2026-05-07 13:54 44.87560 2.92973 34990 ft 429 kts 184°
2026-05-07 13:55 44.81599 2.92751 34984 ft 428 kts 186°
2026-05-07 13:55 44.75652 2.92297 34992 ft 427 kts 187°
2026-05-07 13:56 44.69703 2.91816 34980 ft 428 kts 186°
2026-05-07 13:56 44.63760 2.91362 34980 ft 428 kts 186°
2026-05-07 13:57 44.57814 2.90925 34974 ft 428 kts 186°
2026-05-07 13:57 44.51891 2.90495 34984 ft 428 kts 186°
2026-05-07 13:58 44.45942 2.90064 34987 ft 428 kts 186°
2026-05-07 13:58 44.39995 2.89634 34992 ft 428 kts 186°
2026-05-07 13:59 44.34052 2.89204 34983 ft 427 kts 186°
2026-05-07 13:59 44.28115 2.88775 34991 ft 427 kts 186°
2026-05-07 14:00 44.22189 2.88349 34992 ft 426 kts 186°
2026-05-07 14:00 44.16268 2.87923 34990 ft 426 kts 186°
2026-05-07 14:01 44.10350 2.87498 34985 ft 425 kts 186°
2026-05-07 14:01 44.04443 2.87087 34984 ft 425 kts 186°
2026-05-07 14:02 43.98539 2.86658 34971 ft 425 kts 186°
2026-05-07 14:02 43.92683 2.86236 34976 ft 424 kts 186°
2026-05-07 14:02 43.89731 2.86025 34785 ft 428 kts 186°
2026-05-07 14:03 43.86744 2.85811 34273 ft 430 kts 186°
2026-05-07 14:03 43.83754 2.85600 33676 ft 428 kts 186°
2026-05-07 14:03 43.80809 2.85393 33230 ft 422 kts 186°
2026-05-07 14:03 43.77889 2.85196 32760 ft 418 kts 185°
2026-05-07 14:04 43.75000 2.85139 32346 ft 413 kts 184°
2026-05-07 14:04 43.72141 2.85176 31889 ft 409 kts 183°
2026-05-07 14:04 43.69302 2.85247 31461 ft 405 kts 182°
2026-05-07 14:04 43.66491 2.85320 31028 ft 402 kts 183°
2026-05-07 14:05 43.63699 2.85385 30605 ft 399 kts 183°
2026-05-07 14:05 43.60938 2.85441 30186 ft 396 kts 183°
2026-05-07 14:05 43.58197 2.85491 29699 ft 392 kts 183°
2026-05-07 14:05 43.55478 2.85535 29233 ft 389 kts 183°
2026-05-07 14:06 43.52791 2.85572 28797 ft 385 kts 183°
2026-05-07 14:06 43.50169 2.85610 28396 ft 379 kts 183°
2026-05-07 14:06 43.47502 2.85648 27963 ft 390 kts 183°
2026-05-07 14:06 43.44750 2.85684 27507 ft 400 kts 182°
2026-05-07 14:07 43.41960 2.85723 27033 ft 401 kts 182°
2026-05-07 14:07 43.39180 2.85767 26556 ft 397 kts 182°
2026-05-07 14:07 43.36428 2.85809 26102 ft 394 kts 182°
2026-05-07 14:07 43.33697 2.85851 25664 ft 391 kts 182°
2026-05-07 14:08 43.30984 2.85891 25210 ft 389 kts 182°
2026-05-07 14:08 43.28285 2.85931 24782 ft 386 kts 182°
2026-05-07 14:08 43.25604 2.85970 24345 ft 384 kts 182°
2026-05-07 14:08 43.22930 2.86009 23896 ft 383 kts 182°
2026-05-07 14:09 43.20268 2.86047 23440 ft 382 kts 182°
2026-05-07 14:09 43.17610 2.86085 22938 ft 380 kts 181°
2026-05-07 14:09 43.14976 2.86124 22481 ft 377 kts 181°
2026-05-07 14:09 43.12357 2.86162 22033 ft 375 kts 181°
2026-05-07 14:10 43.09762 2.86200 21616 ft 372 kts 181°
2026-05-07 14:10 43.07180 2.86238 21197 ft 369 kts 181°
2026-05-07 14:10 43.04620 2.86274 20781 ft 367 kts 181°
2026-05-07 14:10 43.02072 2.86310 20368 ft 365 kts 181°
2026-05-07 14:11 42.99565 2.86346 19964 ft 364 kts 181°
2026-05-07 14:11 42.97039 2.86383 19557 ft 363 kts 181°
2026-05-07 14:11 42.94516 2.86419 19151 ft 361 kts 181°
2026-05-07 14:11 42.92013 2.86455 18748 ft 359 kts 181°
2026-05-07 14:12 42.89517 2.86491 18355 ft 358 kts 181°
2026-05-07 14:12 42.87028 2.86527 17917 ft 357 kts 181°
2026-05-07 14:12 42.84547 2.86563 17482 ft 355 kts 181°
2026-05-07 14:12 42.82082 2.86598 17067 ft 353 kts 181°
2026-05-07 14:13 42.79628 2.86633 16665 ft 351 kts 181°
2026-05-07 14:13 42.77193 2.86668 16275 ft 350 kts 180°
2026-05-07 14:13 42.74766 2.86685 15882 ft 346 kts 183°
2026-05-07 14:13 42.72376 2.86496 15498 ft 342 kts 186°
2026-05-07 14:14 42.70015 2.86207 15116 ft 339 kts 186°
2026-05-07 14:14 42.67672 2.85899 14739 ft 336 kts 186°
2026-05-07 14:14 42.65389 2.85603 14366 ft 333 kts 186°
2026-05-07 14:14 42.63091 2.85315 13998 ft 331 kts 186°
2026-05-07 14:15 42.60803 2.85036 13602 ft 328 kts 186°
2026-05-07 14:15 42.58536 2.84765 13195 ft 326 kts 185°
2026-05-07 14:15 42.56287 2.84500 12802 ft 323 kts 186°
2026-05-07 14:15 42.54057 2.84238 12434 ft 320 kts 185°
2026-05-07 14:16 42.51839 2.83978 12058 ft 318 kts 185°
2026-05-07 14:16 42.49643 2.83721 11692 ft 316 kts 186°
2026-05-07 14:16 42.47458 2.83466 11325 ft 314 kts 186°
2026-05-07 14:16 42.45287 2.83209 10988 ft 311 kts 186°
2026-05-07 14:17 42.43184 2.82808 10939 ft 302 kts 190°
2026-05-07 14:17 42.41113 2.82292 10853 ft 305 kts 192°
2026-05-07 14:17 42.38998 2.81743 10784 ft 314 kts 191°
2026-05-07 14:17 42.36830 2.81184 10705 ft 317 kts 191°
2026-05-07 14:18 42.34659 2.80635 10612 ft 317 kts 191°
2026-05-07 14:18 42.32498 2.80096 10534 ft 316 kts 191°
2026-05-07 14:18 42.30340 2.79561 10460 ft 315 kts 191°
2026-05-07 14:18 42.28184 2.79030 10378 ft 315 kts 191°
2026-05-07 14:19 42.26033 2.78503 10310 ft 315 kts 190°
2026-05-07 14:19 42.23875 2.77975 10232 ft 315 kts 191°
2026-05-07 14:19 42.21743 2.77454 10158 ft 307 kts 190°
2026-05-07 14:19 42.19674 2.76949 10067 ft 296 kts 191°
2026-05-07 14:20 42.17684 2.76464 9988 ft 286 kts 191°
2026-05-07 14:20 42.15754 2.75993 9929 ft 279 kts 191°
2026-05-07 14:20 42.13854 2.75445 9865 ft 281 kts 201°
2026-05-07 14:20 42.12235 2.73965 9825 ft 286 kts 226°
2026-05-07 14:21 42.10891 2.71996 9770 ft 291 kts 229°
2026-05-07 14:21 42.09566 2.69951 9684 ft 289 kts 230°
2026-05-07 14:21 42.08254 2.67912 9600 ft 287 kts 230°
2026-05-07 14:21 42.06950 2.65894 9551 ft 285 kts 230°
2026-05-07 14:22 42.05649 2.63890 9470 ft 284 kts 230°
2026-05-07 14:22 42.04345 2.61891 9390 ft 283 kts 229°
2026-05-07 14:22 42.03050 2.59915 9314 ft 281 kts 229°
2026-05-07 14:22 42.01760 2.57951 9263 ft 279 kts 229°
2026-05-07 14:23 42.00476 2.56001 9196 ft 278 kts 229°
2026-05-07 14:23 41.99192 2.54051 9132 ft 281 kts 229°
2026-05-07 14:23 41.97885 2.52069 9086 ft 284 kts 229°
2026-05-07 14:23 41.96579 2.50090 8995 ft 283 kts 229°
2026-05-07 14:24 41.95278 2.48120 8916 ft 281 kts 229°
2026-05-07 14:24 41.93986 2.46166 8854 ft 279 kts 229°
2026-05-07 14:24 41.92697 2.44218 8788 ft 279 kts 229°
2026-05-07 14:24 41.91404 2.42265 8725 ft 280 kts 229°
2026-05-07 14:25 41.90103 2.40301 8658 ft 281 kts 229°
2026-05-07 14:25 41.88805 2.38345 8588 ft 282 kts 229°
2026-05-07 14:25 41.87434 2.36438 8365 ft 287 kts 224°
2026-05-07 14:25 41.85958 2.34613 8114 ft 289 kts 223°
2026-05-07 14:26 41.84470 2.32822 7862 ft 286 kts 223°
2026-05-07 14:26 41.82997 2.31051 7659 ft 281 kts 223°
2026-05-07 14:26 41.81562 2.29319 7537 ft 275 kts 223°
2026-05-07 14:26 41.80147 2.27598 7436 ft 274 kts 223°
2026-05-07 14:27 41.78728 2.25869 7344 ft 277 kts 223°
2026-05-07 14:27 41.77293 2.24118 7256 ft 281 kts 223°
2026-05-07 14:27 41.75865 2.22372 7167 ft 282 kts 223°
2026-05-07 14:27 41.74888 2.21176 7092 ft 282 kts 223°
2026-05-07 14:28 41.72978 2.18838 6969 ft 280 kts 222°
2026-05-07 14:28 41.71540 2.17078 6873 ft 279 kts 223°
2026-05-07 14:28 41.70107 2.15323 6772 ft 279 kts 223°
2026-05-07 14:28 41.68678 2.13574 6670 ft 278 kts 223°
2026-05-07 14:29 41.67713 2.12394 6606 ft 278 kts 223°
2026-05-07 14:29 41.66306 2.10674 6508 ft 278 kts 223°
2026-05-07 14:29 41.64880 2.08932 6419 ft 278 kts 223°
2026-05-07 14:29 41.63450 2.07184 6322 ft 278 kts 223°
2026-05-07 14:30 41.62021 2.05439 6221 ft 278 kts 222°
2026-05-07 14:30 41.60587 2.03689 6132 ft 281 kts 223°
2026-05-07 14:30 41.59140 2.01924 6041 ft 282 kts 223°
2026-05-07 14:30 41.57685 2.00144 5943 ft 284 kts 222°
2026-05-07 14:31 41.56235 1.98378 5809 ft 280 kts 222°
2026-05-07 14:31 41.54804 1.96639 5676 ft 275 kts 222°
2026-05-07 14:31 41.53393 1.94924 5524 ft 273 kts 222°
2026-05-07 14:31 41.51986 1.93215 5383 ft 274 kts 222°
2026-05-07 14:32 41.50573 1.91499 5255 ft 275 kts 222°
2026-05-07 14:32 41.49159 1.89781 5101 ft 276 kts 221°
2026-05-07 14:32 41.47730 1.88048 4857 ft 277 kts 221°
2026-05-07 14:32 41.46313 1.86329 4618 ft 273 kts 221°
2026-05-07 14:33 41.44921 1.84642 4383 ft 269 kts 220°
2026-05-07 14:33 41.43555 1.82985 4173 ft 261 kts 220°
2026-05-07 14:33 41.42236 1.81387 3951 ft 254 kts 220°
2026-05-07 14:33 41.40942 1.79824 3772 ft 246 kts 221°
2026-05-07 14:34 41.39700 1.78344 3581 ft 234 kts 215°
2026-05-07 14:34 41.38218 1.77666 3399 ft 225 kts 174°
2026-05-07 14:34 41.36780 1.78325 3254 ft 217 kts 150°
2026-05-07 14:34 41.35479 1.79335 3196 ft 216 kts 148°
2026-05-07 14:35 41.34177 1.80391 3075 ft 225 kts 148°
2026-05-07 14:35 41.32835 1.81479 3029 ft 227 kts 147°
2026-05-07 14:35 41.31469 1.82576 2981 ft 229 kts 147°
2026-05-07 14:35 41.30117 1.83656 2990 ft 224 kts 147°
2026-05-07 14:36 41.28791 1.84711 2981 ft 222 kts 147°
2026-05-07 14:36 41.27458 1.85772 2999 ft 225 kts 147°
2026-05-07 14:36 41.26153 1.86805 2998 ft 214 kts 148°
2026-05-07 14:36 41.24902 1.87809 2924 ft 203 kts 143°
2026-05-07 14:37 41.24131 1.89247 2784 ft 187 kts 99°
2026-05-07 14:37 41.24625 1.92616 2383 ft 190 kts 73°
2026-05-07 14:37 41.25095 1.94262 2120 ft 190 kts 69°
2026-05-07 14:38 41.25606 1.95824 1869 ft 177 kts 70°
2026-05-07 14:38 41.26089 1.97256 1646 ft 162 kts 68°
2026-05-07 14:38 41.26521 1.98526 1447 ft 147 kts 68°
2026-05-07 14:38 41.26942 1.99755 1222 ft 149 kts 68°
2026-05-07 14:39 41.27375 2.01030 1067 ft 150 kts 68°
2026-05-07 14:39 41.27802 2.02284 842 ft 149 kts 67°
2026-05-07 14:39 41.28230 2.03543 663 ft 147 kts 69°
2026-05-07 14:39 41.28657 2.04780 421 ft 149 kts 68°
2026-05-07 14:40 41.29084 2.06023 253 ft 146 kts 68°
2026-05-07 14:40 41.29495 2.07228 58 ft 142 kts 68°
2026-05-07 14:40 41.29872 2.08328 22 ft 106 kts 65°
2026-05-07 14:40 41.30080 2.08934 18 ft 44 kts 66°
2026-05-07 14:41 41.30133 2.09239 15 ft 27 kts 91°
2026-05-07 14:41 41.30121 2.09400 16 ft 11 kts 117°
2026-05-07 14:41 41.30073 2.09427 15 ft 8 kts 198°
2026-05-07 14:41 41.30033 2.09344 17 ft 15 kts 245°
2026-05-07 14:42 41.29980 2.09189 18 ft 21 kts 245°
2026-05-07 14:42 41.29917 2.09007 18 ft 21 kts 246°
2026-05-07 14:42 41.29857 2.08829 19 ft 21 kts 245°
2026-05-07 14:42 41.29801 2.08667 17 ft 19 kts 245°
2026-05-07 14:43 41.29746 2.08511 17 ft 18 kts 245°
2026-05-07 14:43 41.29695 2.08360 16 ft 17 kts 246°
2026-05-07 14:43 41.29640 2.08237 15 ft 14 kts 207°
2026-05-07 14:43 41.29551 2.08267 15 ft 14 kts 155°
2026-05-07 14:44 41.29466 2.08320 16 ft 13 kts 155°
2026-05-07 14:44 41.29384 2.08369 18 ft 13 kts 155°
2026-05-07 14:44 41.29305 2.08417 21 ft 13 kts 155°
2026-05-07 14:44 41.29220 2.08452 19 ft 13 kts 186°
2026-05-07 14:45 41.29132 2.08415 18 ft 13 kts 199°
2026-05-07 14:45 41.29052 2.08367 19 ft 13 kts 228°
2026-05-07 14:45 41.29016 2.08269 18 ft 11 kts 245°
2026-05-07 14:45 41.28985 2.08180 19 ft 10 kts 245°
2026-05-07 14:46 41.28964 2.08101 18 ft 7 kts 280°
2026-05-07 14:46 41.29000 2.08068 18 ft 6 kts 336°
2026-05-07 14:46 41.29028 2.08051 18 ft 2 kts 336°
2026-05-07 14:46 41.29029 2.08050 18 ft 0 kts 336°